STARLINK-11247, 60720

Orbit data source: Space-Track

STARLINK-11247, 60720 is a payload satellite owned by SpaceX/Seattle (US) in LEO that was launched on Wed, 28 Aug 2024 UTC via an FALCON 9 launch vehicle from the Air Force Eastern Test Range (AFETR). Payload-class satellites include a variety of spacecraft equipped with specific instruments for various scientific and technological missions. These include communications satellites like Starlink; space stations such as the ISS; scientific satellites like the Hubble; Earth observation satellites from companies like Planet Labs, Umbra, and HawkEye 360; GPS; miniature CubeSats for education and research; and military/defense satellites.

Not visible in the next 10 days
Identifier
60720, 2024-152A
Orbit
LEO
Country
Flag of USUS
Related business
Manufacturer
SpaceX/Seattle
Mission
Operational Commercial Communications
Bus & Motor
STARLINK V2MD, Unknown motor
Mass
960 kg wet, ~910 kg dry
Launch date (UTC)
2024-08-28 (2 years ago)
Launch vehicle
FALCON 9
Launch site
Air Force Eastern Test Range (AFETR)
Object type
Payload
Rocket body
Debris
Shape & HBR
Box + 2 Pan, 18.1 m
Radar Cross Section
36.964 m², Large (>1 m²)

Expand to show TLE details & history
Last TLE update: 9 hours ago

TLE from 9 hours ago
0 STARLINK-11247
1 60720U 24152A   26175.09949603 -.00000073  00000-0  42515-5 0  9993
2 60720  53.1602 312.0116 0000790  68.3053 291.8049 15.69709331105541
Epoch: 2026-06-24T02:23Z
TLE epoch observation values (Epoch: 2026-06-24T02:23:16.456Z)
Latitude
-0.00005°
Longitude
3.93143°
Altitude
360.446 km
Speed
7.694 km/s
True Right ascension
20h 48m 02s
True Declination
0° 00' 00"
Sunlit
Object was in full shadow at epoch
Visualization orbit readout
Latitude
Unknown
Longitude
Unknown
Altitude
Unknown
Speed
Unknown
Apparent Right ascension
Unknown
Apparent Declination
Unknown
Sunlit
N/A
Visualization observer readout
Local Sidereal Time
22:57:10
Azimuth
Unknown
Elevation
Unknown
Doppler factor
Unknown
Orbital elements
Apogee altitude
360.522 km
Perigee altitude
359.457 km
Semi-major axis
6,738.126 km
Eccentricity
0.00008
Inclination
53.1602°
RAAN
312.0116°
Arg. of periapsis
68.3053°
True anomaly
291.79649°
Mean anomaly
291.8049°
Eccentric anomaly
291.8007°
Mean motion
3.92405 °/min
Orbital period
91.74 mins
BSTAR
0.0000042515
Loading maneuver chart data...
Computing Atmospheric mass density...
Loading historical data...
Loading historical data...
Loading historical data...
Loading historical data...
Loading historical data...
Loading historical data...
Loading historical data...

Documentation

Showing up to 5 results
|